www.pogodaiklimat.ru

Погода и климат >> Архив погоды >> Мексика >> Chihuahua University


ПОГОДА в Chihuahua University

  • Прогноз погоды в Chihuahua University
  • Монитор погоды в Chihuahua University
  • Климат города

АРХИВ ПОГОДЫ в Chihuahua University

Время (UTC), дата Ветер
(напр.,м/с)
 
Видим.   Явления Облачность Т
(С)
Тd
(С)
f
(%)
Тe
(С)
Тes
(С)
Комфортность P
(гПа)
Po
(гПа)
Тmin
(С)
Tmax
(С)
R
(мм)
R24
(мм)
S
(см)
06 14.04 Ю 3 2000 м ясно +12.6 -5.5 28 +12 +12 1007.2 862.3 +15.2 +29.8
09 14.04 ЮВ 1 2000 м ясно +8.0 -12.0 23 +8 +8 1009.5 862.1
12 14.04 штиль 0 2000 м ясно +4.6 -10.6 32 +5 +5 1014.0 863.5 +4.4 +29.8
15 14.04 Ю 4 8000 м мгла туман ясно +12.0 -7.9 24 +11 +14 1018.5 865.4
18 14.04 ЮВ 3 10 км ясно +16.4 -9.0 17 +16 +32 опасность
простуды
1018.3 865.4 +3.0 +17.0
21 14.04 Ю 2 10 км ясно +18.4 -4.6 21 +19 +35 опасность
простуды
1014.8 863.5
00 15.04 З 2 2000 м ясно +19.8 -1.8 23 +20 +23 1011.6 862.3 +3.0 +21.5
03 15.04 Ю 2 2000 м ясно +15.8 -0.7 32 +16 +16 1011.5 863.3
06 15.04 штиль 0 2000 м ясно +9.4 -13.0 19 +10 +10 1014.1 865.0 +3.0 +21.5
09 15.04 ЮЗ 3 2000 м ясно +9.0 -14.1 18 +8 +8 1015.5 865.0
12 15.04 штиль 0 2000 м ясно +5.8 -7.4 38 +6 +6 1018.1 865.7 +5.0 +21.5
15 15.04 В 1 8000 м мгла туман ясно +14.2 -2.9 31 +15 +22 1019.8 866.1
18 15.04 В 1 10 км ясно +22.6 -1.7 20 +21 +44 комфорт 1017.4 865.2 +3.8 +22.8
21 15.04 В 4 10 км ясно +26.3 -0.5 17 +24 +35 комфорт 1011.8 862.6
00 16.04 В 5 10 км ясно +26.8 -1.8 15 +24 +26 комфорт 1006.2 860.2 +3.8 +28.2
03 16.04 Ю 1 2000 м ясно +19.9 +2.9 32 +21 +21 комфорт 1006.1 861.3
06 16.04 штиль 0 2000 м ясно +14.6 -2.8 30 +15 +15 1008.1 863.0 +3.8 +28.2
12 16.04 ЮЗ 2 2000 м ясно +15.1 -4.3 26 +15 +15 1010.1 862.5 +14.2 +28.2
15 16.04 ЮВ 2 8000 м мгла туман 1/0
[Ci]
+18.4 -0.5 28 +19 +25 1012.7 864.0
18 16.04 Ю 4 9000 м мгла туман ясно +29.2 +4.3 20 +27 +40 жарко 1011.0 863.5 +14.2 +29.5
21 16.04 Ю 3 9000 м мгла туман ясно +33.0 +3.9 16 +29 +42 жарко 1004.8 860.0
00 17.04 ЮЗ 6 10 км 5/0
[Ci]
+33.4 +1.2 13 +30 +31 жарко 999.6 857.6 +14.2 +35.0
03 17.04 ЮЗ 6 2000 м ясно +28.0 -2.0 14 +25 +25 комфорт 1000.2 859.6
06 17.04 С 4 2000 м ясно +23.4 +0.6 22 +22 +22 комфорт 1002.7 861.4 +14.2 +35.0
09 17.04 З 6 2000 м ясно +21.8 +1.3 26 +21 +21 комфорт 1003.5 861.1
12 17.04 штиль 0 2000 м 3/0
[Ac lent]
+17.0 -1.7 28 +17 +17 1005.1 860.8 +16.2 +35.0
15 17.04 Ю 2 8000 м мгла туман 4/0
[Cs]
+21.6 +4.3 32 +22 +27 комфорт 1007.8 861.8
18 17.04 Ю 6 10 км 4/0
[Ci fib]
+29.2 +3.8 20 +27 +34 жарко 1005.7 860.3 +15.0 +29.5
21 17.04 Ю 4 10 км 3/0
[Cs]
+32.8 +1.2 13 +30 +40 жарко 1001.9 858.1
00 18.04 ЮЗ 6 10 км ясно +32.8 +0.5 13 +30 +31 жарко 998.3 856.6 +14.2 +34.2
03 18.04 ЮЗ 7 2000 м ясно +26.8 +2.5 21 +24 +24 комфорт 998.6 858.0
06 18.04 Ю 3 2000 м ясно +22.0 +3.4 29 +22 +22 комфорт 1001.6 860.0 +15.0 +34.2
09 18.04 З 1 2000 м ясно +16.4 -0.3 32 +17 +17 1004.1 860.7
12 18.04 штиль 0 2000 м 3/0
[Cc]
+14.6 -4.8 26 +15 +15 1006.7 861.1 +14.0 +34.2
15 18.04 СВ 1 8000 м мгла туман 1/0
[Cs]
+19.1 -2.1 24 +20 +27 1011.1 863.4
18 18.04 С 4 10 км 6/0
[Cs]
+24.8 -2.0 17 +23 +34 комфорт 1011.7 864.0 +11.8 +25.5
21 18.04 С 2 10 км 1/0
[Cs]
+28.6 -0.7 15 +26 +42 жарко 1008.6 862.4
00 19.04 СВ 4 10 км 4/0
[Ac lent Ci fib]
+29.6 -1.3 13 +27 +28 жарко 1004.6 860.4 +11.8 +34.0
03 19.04 СВ 1 2000 м ясно +21.0 -3.5 19 +22 +22 комфорт 1003.6 860.5
06 19.04 С 2 2000 м ясно +21.6 -3.8 18 +21 +21 комфорт 1005.4 861.8 +11.8 +34.0
09 19.04 С 1 2000 м ясно +14.8 -1.8 32 +16 +16 1008.0 862.7
12 19.04 штиль 0 2000 м 3/0
[Cs]
+12.0 -3.3 34 +12 +12 1010.6 863.1 +11.8 +34.0
15 19.04 С 1 8000 м мгла туман 4/0
[Ac lent]
+18.8 -1.1 26 +20 +25 1013.3 864.2
18 19.04 ЮВ 5 9000 м мгла 9/0
[Cs]
+25.0 +10.1 39 +26 +34 жарко 1012.2 863.6 +11.6 +25.5
21 19.04 В 6 9000 м мгла 6/0
[As op]
+28.0 +11.4 36 +29 +32 жарко 1007.3 860.7
00 20.04 ЮВ 6 10 км 8/0
[Ac As Cs]
+29.4 +9.6 29 +29 +30 жарко 1002.0 858.0 +11.6 +34.0
03 20.04 СВ 7 2000 м 8/0
[Ac lent]
+25.0 +10.6 40 +26 +26 жарко 1000.7 858.2
06 20.04 В 2 2000 м 6/0 2000 м
[Ac inh]
+23.2 +13.2 53 +26 +26 жарко 1002.3 859.5 +11.6 +34.0
09 20.04 штиль 0 2000 м ясно +20.2 +13.1 64 +22 +22 комфорт 1002.5 859.1
12 20.04 ЮВ 3 2000 м ясно +18.6 +13.9 74 +18 +18 1003.6 858.9 +13.8 +34.0
15 20.04 ЮВ 4 8000 м мгла 8/0
[Ac lent Cs]
+21.0 +13.0 60 +24 +26 комфорт 1004.6 859.0
18 20.04 ЮВ 2 10 км 5/0
[As trans]
+28.4 +7.7 27 +28 +41 жарко 1002.3 857.4 +14.2 +33.9
21 20.04 ЮЗ 5 10 км 4/0
[As trans]
+34.2 +17.6 37 +38 +44 очень
душно
997.8 854.8
00 21.04 ЮЗ 9 10 км 10/0
[Ac lent Cc]
+32.8 -1.7 11 +29 +29 жарко 995.5 854.4 +14.2 +34.8
03 21.04 ЮЗ 7 2000 м 8/0
[Ac lent]
+27.0 -4.4 12 +24 +24 комфорт 997.0 856.7

 

Местоположение метеостанции Chihuahua University (Мексика): широта 28.63 долгота -106.00 высота над уровнем моря 1433 м.

В архиве по умолчанию представлена погода в Chihuahua University за последнюю неделю. Архивные данные за месяц целиком и за предыдущие месяцы, начиная с января 2011 года, Вы можете получить, выбрав интересующий диапазон дат из раскрывающегося списка и нажав кнопку "Ввод!".


*Определитесь, кто Вы:
робот инопланетянин человек

Внимание! Время в таблицах - всемирное. Для получения местного времени необходимо прибавить поправку, которая в Chihuahua University равна -6 ч.

Смотрите также архив погоды в соседних городах и на ближайших метеорологических станциях:

Погода в Chihuahua (Мексика) (11 км)
Погода в Temosachic (Мексика) (179 км)
Погода в Hidalgo del Parral (Мексика) (193 км)
Погода в Nueva Casas Grandes (Мексика) (267 км)
Погода в Choix (Мексика) (303 км)
Погода в Tepehuanes (Мексика) (367 км)
Погода в Ciudad Obregon (Мексика) (401 км)
Погода в Pilares de Nacoz (Мексика) (405 км)
Погода в Torreon (Мексика) (430 км)
Погода в Culiacan (Мексика) (448 км)

Пояснения к столбцам:

Ветер - указаны скорость ветра в м/с - средняя за 10 мин, порывы в срок и между сроками (в фигурных скобках) и направление, откуда дует ветер: С - северный, СВ - северо-восточный, В - восточный, ЮВ - юго-восточный, Ю - южный, ЮЗ - юго-западный, З - западный, СЗ - северо-западный.
Видимость - горизонтальная дальность видимости в метрах или километрах. При видимости от 1 до 10 км при отсутствии осадков обычно наблюдается дымка, при ухудшении видимости до 1 км и менее - туман. В сухую погоду видимость может ухудшаться дымом, пылью или мглою.
Явления - указаны атмосферные явления, наблюдавшиеся в срок или в последний час перед сроком; фигурными скобками обозначены явления, наблюдавшиеся между сроками (за 1-3 часа до срока); квадратными скобками обозначены град или гололедные отложения с указанием их диаметра в мм.
Облачность - указаны через наклонную черту общая и нижняя облачность в баллах и высота нижней границы облаков в метрах; квадратными скобками обозначены формы облаков: Ci - перистые, Cs - перисто-слоистые, Cc - перисто-кучевые, Ac - высококучевые, As - высокослоистые, Sc - слоисто-кучевые, Ns - слоисто-дождевые, Cu - кучевые, Cb - кучево-дождевые. Подробнее классификацию облаков см. в Атласе облаков (PDF).
T - Температура воздуха - температура, измеренная на высоте 2 м над землей.
Td - Температура точки росы - температура, при понижении до которой содержащийся в воздухе водяной пар достигнет насыщения.
f - Относительная влажность воздуха - влажноcть воздуха, измеренная на высоте 2 м над землей.
Te - Эффективная температура - температура, которую ощущает одетый по сезону человек в тени. Характеристика душности погоды. При расчете учитывается влияние влажности воздуха и скорости ветра на теплоощущения человека.
Tes - Эффективная температура на солнце - температура, которую ощущает человек, с поправкой на солнечный нагрев. Характеристика знойности погоды. Зависит от высоты солнца над горизонтом, облачности и скорости ветра. Ночью, в пасмурную погоду, а также при ветре 12 м/с и более поправка равна нулю.
P - Атмосферное давление - приведенное к уровню моря атмосферное давление.
Po - Атмосферное давление - измеренное на уровне метеостанции атмосферное давление.
Tmin - Минимальная температура - минимум температуры воздуха на высоте 2 м над землей.
Tmax - Максимальная температура - максимум температуры воздуха на высоте 2 м над землей.
R - Количество осадков - Количество выпавших осадков за период времени, мм. При наведении курсора мыши на число - период времени, за который выпало указанное количество осадков.
R24 - Количество осадков - Количество выпавших осадков за 24 часа, мм.
S - Снежный покров - Высота снежного покрова, см. При наведении курсора мыши на число - состояние снежного покрова и степень покрытия местности в баллах.